Change the Weather History Date:

Saturday, December 15, 2012

  Actual Average Record
Temperature  
Mean Temperature 39 °F 28 °F  
Max Temperature 46 °F 34 °F 58 °F (1971)
Min Temperature 31 °F 22 °F -1 °F (1989)
Degree Days  
Heating Degree Days 26 37  
Month to date heating degree days 390 518  
Since 1 July heating degree days 1828 1922  
Cooling Degree Days 0 0  
Month to date cooling degree days 0 0  
Year to date cooling degree days 873 592  
Moisture  
Dew Point 34 °F    
Average Humidity 81    
Maximum Humidity 92    
Minimum Humidity 70    
Precipitation  
Precipitation 0.09 in 0.06 in 0.91 in (1987)
Month to date precipitation 1.01 0.94  
Year to date precipitation 24.31 30.57  
Sea Level Pressure  
Sea Level Pressure 29.88 in    
Wind  
Wind Speed 8 mph (SE)    
Max Wind Speed 21 mph    
Max Gust Speed 26 mph    
Visibility 7 miles    
Events Rain    
T = Trace of Precipitation, MM = Missing Value Source: NWS Daily Summary

Daily Weather History Graph

Daily Weather History Graph

Search for Another Location

Airport or City:

Trip Planner

Search our weather history database for the weather conditions in past years. The results will help you decide how hot, cold, wet, or windy it might be!

Date:

Astronomy

Dec. 15, 2012 Rise Set
Actual Time 8:00 AM EST 5:06 PM EST
Civil Twilight 7:28 AM EST 5:38 PM EST
Nautical Twilight 6:52 AM EST 6:13 PM EST
Astronomical Twilight 6:18 AM EST 6:47 PM EST
Moon 9:50 AM EST (12/15) 8:11 PM EST (12/15)
Length of Visible Light 10h 10m
Length of Day
9h 06m
Waxing Crescent, 8% of the Moon is Illuminated
Dec 15
Waxing Crescent
Dec 20
First Quarter
Dec 28
Full
Jan 4
Last Quarter
Jan 11
New

Hourly Weather History & Observations

Time (EST) Temp. Windchill Dew Point Humidity Pressure Visibility Wind Dir Wind Speed Gust Speed Precip Events Conditions
1:56 AM 30.9 °F 27.5 °F 27.0 °F 85% 30.15 in 8.0 mi ESE 3.5 mph - N/A   Clear
2:56 AM 32.0 °F 27.5 °F 28.0 °F 85% 30.14 in 7.0 mi SE 4.6 mph - N/A   Clear
3:56 AM 32.0 °F 27.5 °F 28.0 °F 85% 30.13 in 5.0 mi ESE 4.6 mph - N/A   Clear
4:56 AM 30.9 °F 26.2 °F 28.9 °F 92% 30.12 in 4.0 mi ESE 4.6 mph - N/A   Clear
5:56 AM 33.1 °F 28.7 °F 30.0 °F 89% 30.13 in 4.0 mi ESE 4.6 mph - N/A   Clear
6:56 AM 33.1 °F 26.9 °F 30.9 °F 92% 30.12 in 4.0 mi SE 6.9 mph - N/A   Scattered Clouds
7:56 AM 34.0 °F 28.8 °F 30.9 °F 89% 30.10 in 6.0 mi SE 5.8 mph - N/A   Scattered Clouds
9:56 AM 36.0 °F 29.0 °F 30.9 °F 82% 30.05 in 8.0 mi SE 9.2 mph - N/A   Mostly Cloudy
10:56 AM 37.9 °F 31.5 °F 30.0 °F 73% 30.03 in 10.0 mi SE 9.2 mph - N/A   Overcast
11:56 AM 39.0 °F 36.8 °F 30.9 °F 73% 29.98 in 10.0 mi SSE 3.5 mph - 0.00 in   Overcast
12:56 PM 39.0 °F 32.8 °F 30.9 °F 73% 29.92 in 10.0 mi SE 9.2 mph 18.4 mph 0.00 in   Overcast
1:56 PM 41.0 °F 35.8 °F 32.0 °F 70% 29.89 in 10.0 mi SE 8.1 mph - 0.00 in   Overcast
2:56 PM 39.9 °F 33.4 °F 33.1 °F 77% 29.87 in 10.0 mi SE 10.4 mph - 0.03 in Rain Light Rain
3:56 PM 41.0 °F 33.9 °F 34.0 °F 76% 29.82 in 10.0 mi SE 12.7 mph - 0.00 in   Overcast
4:37 PM 41.0 °F 34.3 °F 35.6 °F 81% 29.78 in 10.0 mi SSE 11.5 mph 19.6 mph 0.01 in   Overcast
4:51 PM 41.0 °F 33.9 °F 35.6 °F 81% 29.77 in 8.0 mi SE 12.7 mph - 0.01 in   Overcast
4:56 PM 41.0 °F 33.9 °F 36.0 °F 82% 29.80 in 10.0 mi SE 12.7 mph 23.0 mph 0.01 in   Overcast
5:06 PM 41.0 °F 34.3 °F 35.6 °F 81% 29.76 in 8.0 mi SE 11.5 mph - N/A   Overcast
5:20 PM 41.0 °F 33.9 °F 35.6 °F 81% 29.76 in 10.0 mi SE 12.7 mph - N/A   Overcast
5:56 PM 42.1 °F 34.9 °F 36.0 °F 79% 29.78 in 10.0 mi SSE 13.8 mph 21.9 mph N/A   Overcast
6:08 PM 42.8 °F 36.2 °F 35.6 °F 76% 29.75 in 10.0 mi SSE 12.7 mph 19.6 mph N/A   Overcast
6:56 PM 42.1 °F 34.5 °F 37.0 °F 82% 29.75 in 10.0 mi SSE 15.0 mph - N/A   Overcast
7:34 PM 42.8 °F 34.8 °F 37.4 °F 81% 29.73 in 8.0 mi SSE 17.3 mph 23.0 mph N/A   Overcast
7:56 PM 42.1 °F 34.2 °F 39.0 °F 89% 29.74 in 6.0 mi SSE 16.1 mph 24.2 mph N/A   Overcast
8:04 PM 42.8 °F 35.1 °F 39.2 °F 87% 29.71 in 4.0 mi SSE 16.1 mph 23.0 mph N/A   Overcast
8:33 PM 42.8 °F 35.4 °F 39.2 °F 87% 29.70 in 4.0 mi SSE 15.0 mph - N/A   Overcast
8:56 PM 42.1 °F 34.9 °F 39.9 °F 92% 29.72 in 3.0 mi SSE 13.8 mph - 0.00 in Rain Light Rain
9:56 PM 43.0 °F 37.7 °F 41.0 °F 93% 29.70 in 6.0 mi South 9.2 mph - 0.02 in   Overcast
10:56 PM 45.0 °F 40.6 °F 43.0 °F 93% 29.68 in 4.0 mi South 8.1 mph - 0.01 in Rain Light Rain
11:56 PM 45.0 °F 40.6 °F 43.0 °F 93% 29.67 in 4.0 mi South 8.1 mph - 0.02 in Rain Light Rain